Weather History for KOXV - April, 2014

Change the Weather History Date:

Tuesday, April 8, 2014

  Actual Average Record
Temperature  
Mean Temperature 47 °F -  
Max Temperature 57 °F 58 °F 84 °F (2001)
Min Temperature 37 °F 38 °F 19 °F (1972)
Degree Days  
Heating Degree Days 18    
Moisture  
Dew Point 32 °F    
Average Humidity 60    
Maximum Humidity 87    
Minimum Humidity 33    
Precipitation  
Precipitation 0.00 in - - ()
Sea Level Pressure  
Sea Level Pressure 29.93 in    
Wind  
Wind Speed 13 mph (NNW)    
Max Wind Speed 25 mph    
Max Gust Speed 31 mph    
Visibility 10 miles    
Events      
Averages and records for this station are not official NWS values.
T = Trace of Precipitation, MM = Missing Value Source: NWS Daily Summary

Daily Weather History Graph

Daily Weather History Graph

Search for Another Location

Airport or City:

Trip Planner

Search our weather history database for the weather conditions in past years. The results will help you decide how hot, cold, wet, or windy it might be!

Date:

Astronomy

Apr. 08, 2014 Rise Set
Actual Time 6:44 AM CDT 7:45 PM CDT
Civil Twilight 6:15 AM CDT 8:13 PM CDT
Nautical Twilight 5:42 AM CDT 8:47 PM CDT
Astronomical Twilight 5:07 AM CDT 9:22 PM CDT
Moon 1:35 PM CDT (4/8) 3:01 AM CDT (4/8)
Length of Visible Light 13h 57m
Length of Day
13h 01m
Waxing Gibbous, 63% of the Moon is Illuminated
Apr 8
Waxing Gibbous
Apr 15
Full
Apr 22
Last Quarter
Apr 29
New
May 6
First Quarter

Hourly Weather History & Observations

Time (CDT) Temp. Windchill Dew Point Humidity Pressure Visibility Wind Dir Wind Speed Gust Speed Precip Events Conditions
12:15 AM 42.8 °F 37.0 °F 37.4 °F 81% 29.82 in 10.0 mi NW 10.4 mph - N/A   Clear
12:35 AM 42.8 °F 37.0 °F 37.4 °F 81% 29.82 in 10.0 mi NW 10.4 mph - N/A   Clear
12:55 AM 44.6 °F 39.7 °F 37.4 °F 76% 29.82 in 10.0 mi NW 9.2 mph - N/A   Clear
1:15 AM 46.4 °F 40.7 °F 35.6 °F 66% 29.82 in 10.0 mi NW 12.7 mph - N/A   Clear
1:35 AM 44.6 °F 38.8 °F 35.6 °F 71% 29.82 in 10.0 mi NW 11.5 mph - N/A   Clear
1:55 AM 44.6 °F 39.7 °F 35.6 °F 71% 29.82 in 10.0 mi NW 9.2 mph - N/A   Clear
2:15 AM 44.6 °F 39.2 °F 35.6 °F 71% 29.82 in 10.0 mi NW 10.4 mph - N/A   Clear
2:35 AM 42.8 °F 37.0 °F 33.8 °F 70% 29.82 in 10.0 mi NW 10.4 mph - N/A   Clear
2:55 AM 42.8 °F 36.2 °F 33.8 °F 70% 29.82 in 10.0 mi NW 12.7 mph - N/A   Clear
3:15 AM 42.8 °F 36.2 °F 33.8 °F 70% 29.82 in 10.0 mi NW 12.7 mph - N/A   Clear
3:35 AM 42.8 °F 36.6 °F 33.8 °F 70% 29.82 in 10.0 mi NW 11.5 mph - N/A   Mostly Cloudy
3:55 AM 39.2 °F 32.0 °F 33.8 °F 81% 29.82 in 10.0 mi NW 11.5 mph - N/A   Overcast
4:15 AM 39.2 °F 32.5 °F 33.8 °F 81% 29.82 in 10.0 mi NW 10.4 mph - N/A   Mostly Cloudy
4:35 AM 39.2 °F 33.0 °F 33.8 °F 81% 29.82 in 10.0 mi NW 9.2 mph - N/A   Partly Cloudy
4:55 AM 39.2 °F 32.0 °F 33.8 °F 81% 29.82 in 10.0 mi NW 11.5 mph - N/A   Clear
5:15 AM 39.2 °F 33.0 °F 33.8 °F 81% 29.83 in 10.0 mi WNW 9.2 mph - N/A   Clear
5:35 AM 37.4 °F 29.3 °F 33.8 °F 87% 29.84 in 10.0 mi WNW 12.7 mph - N/A   Clear
5:55 AM 39.2 °F 32.5 °F 33.8 °F 81% 29.85 in 10.0 mi NW 10.4 mph - N/A   Partly Cloudy
6:15 AM 37.4 °F 29.8 °F 33.8 °F 87% 29.86 in 10.0 mi WNW 11.5 mph - N/A   Mostly Cloudy
6:35 AM 37.4 °F 30.3 °F 33.8 °F 87% 29.86 in 10.0 mi NW 10.4 mph - N/A   Mostly Cloudy
6:55 AM 37.4 °F 29.8 °F 33.8 °F 87% 29.87 in 10.0 mi WNW 11.5 mph - N/A   Overcast
7:15 AM 37.4 °F 29.3 °F 33.8 °F 87% 29.88 in 10.0 mi NW 12.7 mph - N/A   Scattered Clouds
7:35 AM 39.2 °F 31.6 °F 33.8 °F 81% 29.88 in 10.0 mi NW 12.7 mph - N/A   Mostly Cloudy
7:55 AM 41.0 °F 33.5 °F 35.6 °F 81% 29.89 in 10.0 mi NW 13.8 mph - N/A   Overcast
8:15 AM 42.8 °F 35.8 °F 37.4 °F 81% 29.89 in 10.0 mi NW 13.8 mph 19.6 mph N/A   Mostly Cloudy
8:35 AM 42.8 °F 35.4 °F 35.6 °F 76% 29.90 in 10.0 mi NNW 15.0 mph 20.7 mph N/A   Overcast
8:55 AM 44.6 °F 38.4 °F 35.6 °F 71% 29.90 in 10.0 mi NNW 12.7 mph 21.9 mph N/A   Overcast
9:15 AM 44.6 °F 37.8 °F 35.6 °F 71% 29.91 in 10.0 mi NNW 15.0 mph - N/A   Overcast
9:35 AM 44.6 °F 38.1 °F 35.6 °F 71% 29.92 in 10.0 mi NNW 13.8 mph - N/A   Overcast
9:55 AM 44.6 °F 37.8 °F 35.6 °F 71% 29.92 in 10.0 mi NNW 15.0 mph - N/A   Scattered Clouds
10:15 AM 46.4 °F 40.4 °F 35.6 °F 66% 29.93 in 10.0 mi NNW 13.8 mph 19.6 mph N/A   Clear
10:35 AM 48.2 °F - 33.8 °F 58% 29.94 in 10.0 mi NNW 17.3 mph 23.0 mph N/A   Clear
10:55 AM 50.0 °F - 32.0 °F 50% 29.95 in 10.0 mi NW 17.3 mph 23.0 mph N/A   Scattered Clouds
11:15 AM 50.0 °F - 26.6 °F 40% 29.95 in 10.0 mi NNW 19.6 mph 26.5 mph N/A   Partly Cloudy
11:35 AM 51.8 °F - 26.6 °F 38% 29.95 in 10.0 mi NNW 21.9 mph - N/A   Clear
11:55 AM 51.8 °F - 26.6 °F 38% 29.95 in 10.0 mi NNW 19.6 mph 27.6 mph N/A   Clear
12:15 PM 53.6 °F - 26.6 °F 35% 29.96 in 10.0 mi NNW 19.6 mph 28.8 mph N/A   Clear
12:35 PM 53.6 °F - 24.8 °F 33% 29.95 in 10.0 mi NW 25.3 mph 31.1 mph N/A   Clear
12:55 PM 53.6 °F - 26.6 °F 35% 29.95 in 10.0 mi NNW 18.4 mph 26.5 mph N/A   Clear
1:15 PM 53.6 °F - 24.8 °F 33% 29.95 in 10.0 mi NNW 18.4 mph 28.8 mph N/A   Clear
1:35 PM 55.4 °F - 26.6 °F 33% 29.95 in 10.0 mi North 19.6 mph 27.6 mph N/A   Clear
1:55 PM 55.4 °F - 26.6 °F 33% 29.95 in 10.0 mi NNW 18.4 mph 28.8 mph N/A   Clear
2:15 PM 55.4 °F - 26.6 °F 33% 29.95 in 10.0 mi NNW 19.6 mph 26.5 mph N/A   Clear
2:35 PM 55.4 °F - 28.4 °F 36% 29.95 in 10.0 mi NNW 18.4 mph 25.3 mph N/A   Clear
2:55 PM 55.4 °F - 28.4 °F 36% 29.95 in 10.0 mi NNW 19.6 mph 27.6 mph N/A   Partly Cloudy
3:15 PM 55.4 °F - 30.2 °F 38% 29.95 in 10.0 mi NNW 17.3 mph 26.5 mph N/A   Scattered Clouds
3:35 PM 55.4 °F - 30.2 °F 38% 29.95 in 10.0 mi NNW 20.7 mph - N/A   Partly Cloudy
3:55 PM 55.4 °F - 32.0 °F 41% 29.95 in 10.0 mi NNW 16.1 mph 23.0 mph N/A   Partly Cloudy
4:15 PM 57.2 °F - 32.0 °F 38% 29.95 in 10.0 mi NNW 19.6 mph - N/A   Scattered Clouds
4:35 PM 53.6 °F - 32.0 °F 44% 29.96 in 10.0 mi NNW 18.4 mph - N/A   Scattered Clouds
4:55 PM 55.4 °F - 32.0 °F 41% 29.96 in 10.0 mi North 17.3 mph - N/A   Mostly Cloudy
5:15 PM 55.4 °F - 30.2 °F 38% 29.97 in 10.0 mi NNW 16.1 mph - N/A   Scattered Clouds
5:35 PM 55.4 °F - 26.6 °F 33% 29.98 in 10.0 mi NNW 16.1 mph 27.6 mph N/A   Scattered Clouds
5:55 PM 55.4 °F - 28.4 °F 36% 29.98 in 10.0 mi NNW 13.8 mph 20.7 mph N/A   Partly Cloudy
6:15 PM 55.4 °F - 26.6 °F 33% 29.99 in 10.0 mi NNW 13.8 mph 23.0 mph N/A   Clear
6:35 PM 53.6 °F - 26.6 °F 35% 29.99 in 10.0 mi NNW 16.1 mph - N/A   Clear
6:55 PM 53.6 °F - 24.8 °F 33% 30.00 in 10.0 mi NNW 16.1 mph 21.9 mph N/A   Clear
7:15 PM 51.8 °F - 26.6 °F 38% 30.00 in 10.0 mi NNW 12.7 mph - N/A   Clear
7:35 PM 50.0 °F - 30.2 °F 47% 30.01 in 10.0 mi North 10.4 mph - N/A   Clear
7:55 PM 50.0 °F - 30.2 °F 47% 30.02 in 10.0 mi North 9.2 mph - N/A   Clear
8:15 PM 48.2 °F - 32.0 °F 54% 30.03 in 10.0 mi North 9.2 mph - N/A   Clear
8:35 PM 46.4 °F 42.9 °F 32.0 °F 57% 30.03 in 10.0 mi North 6.9 mph - N/A   Clear
8:55 PM 44.6 °F 42.2 °F 30.2 °F 57% 30.04 in 10.0 mi NNW 4.6 mph - N/A   Clear
9:15 PM 42.8 °F 39.3 °F 30.2 °F 61% 30.04 in 10.0 mi North 5.8 mph - N/A   Clear
9:35 PM 44.6 °F 41.4 °F 32.0 °F 61% 30.05 in 10.0 mi North 5.8 mph - N/A   Clear
9:55 PM 41.0 °F 36.4 °F 30.2 °F 65% 30.05 in 10.0 mi NNW 6.9 mph - N/A   Clear
10:15 PM 39.2 °F 35.0 °F 32.0 °F 75% 30.05 in 10.0 mi NW 5.8 mph - N/A   Clear
10:35 PM 41.0 °F 37.1 °F 32.0 °F 70% 30.05 in 10.0 mi NNW 5.8 mph - N/A   Clear
10:55 PM 41.0 °F 37.1 °F 32.0 °F 70% 30.04 in 10.0 mi NNW 5.8 mph - N/A   Clear
11:15 PM 39.2 °F 35.9 °F 30.2 °F 70% 30.04 in 10.0 mi NW 4.6 mph - N/A   Clear
11:35 PM 37.4 °F 32.8 °F 30.2 °F 75% 30.04 in 10.0 mi NW 5.8 mph - N/A   Clear
11:55 PM 37.4 °F 32.8 °F 30.2 °F 75% 30.04 in 10.0 mi NW 5.8 mph - N/A   Clear